|
NORAD ID: 11751 Int'l Code: 1980-026B
Perigee: 973.6 km
Apogee: 990.5 km
Inclination: 65.8 °
Period: 104.6 minutes
Semi major axis: 7353 km
Launch date: April 3, 1980
Source: Commonwealth of Independent States (former USSR) (CIS)
Note: This is a ROCKET BODY
Two Line Element Set (TLE):
1 11751U 80026B 13165.82513606 -.00000130 00000-0 -49453-4 0 3661
2 11751 065.8397 166.1417 0011445 213.7217 208.0814 13.76901296668400
Source:
NASA's NSSDC Master Catalog entry for SL-8 R/B
|